Time,TemperatureF,DewpointF,PressureIn,WindDirection,WindDirectionDegrees,WindSpeedMPH,WindSpeedGustMPH,Humidity,HourlyPrecipIn,Conditions,Clouds,dailyrainin,SoftwareType,DateUTC
2013-08-01 00:03:00,59.0,57.0,29.98,East,98,0.0,3.0,94,0.00,,,0.00,,2013-08-01 04:03:00,
2013-08-01 00:13:00,59.0,57.0,29.98,East,98,0.0,3.0,94,0.00,,,0.00,,2013-08-01 04:13:00,
2013-08-01 00:22:00,59.0,58.0,29.98,East,98,1.0,2.0,95,0.00,,,0.00,,2013-08-01 04:22:00,
2013-08-01 00:52:00,59.0,58.0,29.98,ESE,121,1.0,3.0,95,0.00,,,0.00,,2013-08-01 04:52:00,
2013-08-01 01:03:00,60.0,59.0,29.98,SSW,196,1.0,3.0,95,0.00,,,0.00,,2013-08-01 05:03:00,
2013-08-01 01:13:00,59.0,58.0,29.98,SSW,196,0.0,2.0,95,0.00,,,0.00,,2013-08-01 05:13:00,
2013-08-01 01:23:00,59.0,58.0,29.98,SSW,196,0.0,2.0,95,0.00,,,0.00,,2013-08-01 05:23:00,
2013-08-01 01:33:00,59.0,58.0,29.97,SSW,196,1.0,2.0,96,0.00,,,0.00,,2013-08-01 05:33:00,
2013-08-01 01:43:00,59.0,58.0,29.97,SSW,196,0.0,0.0,96,0.00,,,0.00,,2013-08-01 05:43:00,
2013-08-01 01:53:00,59.0,58.0,29.97,SSW,196,0.0,0.0,96,0.00,,,0.00,,2013-08-01 05:53:00,
2013-08-01 02:02:00,59.0,58.0,29.97,SSW,196,1.0,2.0,96,0.00,,,0.00,,2013-08-01 06:02:00,
2013-08-01 02:23:00,59.0,58.0,29.96,SSW,196,0.0,2.0,96,0.00,,,0.00,,2013-08-01 06:23:00,
2013-08-01 02:33:00,59.0,58.0,29.96,SSW,196,0.0,2.0,96,0.00,,,0.00,,2013-08-01 06:33:00,
2013-08-01 02:43:00,58.0,57.0,29.96,SSW,196,0.0,1.0,96,0.00,,,0.00,,2013-08-01 06:43:00,
2013-08-01 02:52:00,58.0,57.0,29.96,SSW,196,0.0,1.0,96,0.00,,,0.00,,2013-08-01 06:52:00,
2013-08-01 03:03:00,58.0,57.0,29.96,SSW,196,1.0,2.0,97,0.00,,,0.00,,2013-08-01 07:03:00,
2013-08-01 03:12:00,58.0,57.0,29.96,SSW,196,0.0,2.0,97,0.00,,,0.00,,2013-08-01 07:12:00,
2013-08-01 03:23:00,58.0,57.0,29.96,SSW,196,0.0,2.0,97,0.00,,,0.00,,2013-08-01 07:23:00,
2013-08-01 03:32:00,57.0,56.0,29.96,SSW,196,1.0,2.0,97,0.00,,,0.00,,2013-08-01 07:32:00,
2013-08-01 03:43:00,57.0,56.0,29.95,SSW,196,1.0,2.0,97,0.00,,,0.00,,2013-08-01 07:43:00,
2013-08-01 03:53:00,57.0,56.0,29.95,SSW,196,1.0,2.0,97,0.00,,,0.00,,2013-08-01 07:53:00,
2013-08-01 04:16:00,57.0,56.0,29.95,SSW,196,0.0,2.0,97,0.00,,,0.00,,2013-08-01 08:16:00,
2013-08-01 04:28:00,57.0,56.0,29.95,SSW,196,0.0,2.0,97,0.00,,,0.00,,2013-08-01 08:28:00,
2013-08-01 04:41:00,57.0,56.0,29.95,SSW,196,1.0,2.0,97,0.00,,,0.00,,2013-08-01 08:41:00,
2013-08-01 04:47:00,57.0,56.0,29.95,SSW,196,0.0,2.0,98,0.00,,,0.00,,2013-08-01 08:47:00,
2013-08-01 05:24:00,57.0,56.0,29.96,SSW,196,1.0,2.0,98,0.00,,,0.00,,2013-08-01 09:24:00,
2013-08-01 05:35:00,57.0,56.0,29.96,SSW,196,1.0,2.0,98,0.00,,,0.00,,2013-08-01 09:35:00,
2013-08-01 06:18:00,57.0,56.0,29.96,SSW,196,0.0,1.0,98,0.00,,,0.00,,2013-08-01 10:18:00,
2013-08-01 07:16:00,61.0,61.0,29.97,SSW,196,0.0,1.0,99,0.00,,,0.00,,2013-08-01 11:16:00,
2013-08-01 07:23:00,61.0,60.0,29.97,East,92,1.0,2.0,98,0.00,,,0.00,,2013-08-01 11:23:00,
2013-08-01 07:36:00,61.0,60.0,29.97,East,92,1.0,2.0,98,0.00,,,0.00,,2013-08-01 11:36:00,
2013-08-01 07:48:00,61.0,60.0,29.97,East,92,0.0,2.0,98,0.00,,,0.00,,2013-08-01 11:48:00,
2013-08-01 08:03:00,61.0,60.0,29.97,East,92,0.0,2.0,98,0.00,,,0.00,,2013-08-01 12:03:00,
2013-08-01 08:17:00,62.0,61.0,29.97,East,92,1.0,2.0,98,0.00,,,0.00,,2013-08-01 12:17:00,
2013-08-01 08:34:00,63.0,62.0,29.97,East,92,1.0,2.0,97,0.00,,,0.00,,2013-08-01 12:34:00,
2013-08-01 09:16:00,65.0,63.0,29.96,NE,55,4.0,5.0,94,0.00,,,0.00,,2013-08-01 13:16:00,
2013-08-01 09:35:00,66.0,64.0,29.96,ENE,62,3.0,6.0,93,0.00,,,0.00,,2013-08-01 13:35:00,
2013-08-01 09:44:00,65.0,63.0,29.96,ENE,58,4.0,5.0,92,0.00,,,0.00,,2013-08-01 13:44:00,
2013-08-01 10:19:00,66.0,64.0,29.96,ENE,59,3.0,4.0,93,0.00,,,0.00,,2013-08-01 14:19:00,
2013-08-01 11:16:00,74.0,66.0,29.95,SSW,205,1.0,5.0,75,0.00,,,0.00,,2013-08-01 15:16:00,
2013-08-01 11:33:00,75.0,64.0,29.95,ESE,104,1.0,5.0,69,0.00,,,0.00,,2013-08-01 15:33:00,
2013-08-01 12:03:00,75.0,65.0,29.94,SW,231,3.0,8.0,70,0.00,,,0.00,,2013-08-01 16:03:00,
2013-08-01 12:09:00,75.0,65.0,29.94,SW,231,3.0,8.0,70,0.00,,,0.00,,2013-08-01 16:09:00,
2013-08-01 12:33:00,75.0,66.0,29.93,SW,234,1.0,6.0,74,0.00,,,0.00,,2013-08-01 16:33:00,
2013-08-01 12:43:00,75.0,67.0,29.93,West,274,2.0,7.0,75,0.00,,,0.00,,2013-08-01 16:43:00,
2013-08-01 12:52:00,75.0,67.0,29.93,West,274,2.0,7.0,75,0.00,,,0.00,,2013-08-01 16:52:00,
2013-08-01 12:59:00,74.0,65.0,29.93,WSW,238,3.0,8.0,74,0.00,,,0.00,,2013-08-01 16:59:00,
2013-08-01 13:17:00,74.0,66.0,29.92,West,277,2.0,7.0,75,0.00,,,0.00,,2013-08-01 17:17:00,
2013-08-01 13:37:00,74.0,66.0,29.92,SSW,198,2.0,7.0,75,0.00,,,0.00,,2013-08-01 17:37:00,
2013-08-01 13:46:00,76.0,65.0,29.91,North,9,1.0,5.0,69,0.00,,,0.00,,2013-08-01 17:46:00,
2013-08-01 13:55:00,76.0,65.0,29.91,North,9,1.0,5.0,69,0.00,,,0.00,,2013-08-01 17:55:00,
2013-08-01 14:11:00,76.0,65.0,29.91,North,9,1.0,5.0,69,0.00,,,0.00,,2013-08-01 18:11:00,
2013-08-01 14:19:00,73.0,65.0,29.91,SW,226,2.0,11.0,75,0.00,,,0.00,,2013-08-01 18:19:00,
2013-08-01 14:35:00,74.0,66.0,29.91,SW,234,2.0,9.0,75,0.00,,,0.00,,2013-08-01 18:35:00,
2013-08-01 14:46:00,74.0,65.0,29.91,East,96,2.0,7.0,73,0.00,,,0.00,,2013-08-01 18:46:00,
2013-08-01 14:54:00,74.0,65.0,29.91,East,96,2.0,7.0,73,0.00,,,0.00,,2013-08-01 18:54:00,
2013-08-01 15:02:00,74.0,66.0,29.91,East,83,2.0,10.0,76,0.00,,,0.00,,2013-08-01 19:02:00,
2013-08-01 15:15:00,73.0,65.0,29.90,West,265,3.0,10.0,75,0.00,,,0.00,,2013-08-01 19:15:00,
2013-08-01 15:24:00,73.0,65.0,29.90,West,265,3.0,10.0,75,0.00,,,0.00,,2013-08-01 19:24:00,
2013-08-01 15:55:00,73.0,65.0,29.90,South,189,2.0,8.0,77,0.00,,,0.00,,2013-08-01 19:55:00,
2013-08-01 16:15:00,72.0,65.0,29.89,ESE,108,2.0,6.0,78,0.00,,,0.00,,2013-08-01 20:15:00,
2013-08-01 16:20:00,72.0,65.0,29.89,ESE,108,2.0,6.0,78,0.00,,,0.00,,2013-08-01 20:20:00,
2013-08-01 16:29:00,72.0,65.0,29.90,SW,227,1.0,8.0,78,0.00,,,0.00,,2013-08-01 20:29:00,
2013-08-01 17:04:00,72.0,65.0,29.89,NNW,342,1.0,5.0,78,0.00,,,0.00,,2013-08-01 21:04:00,
2013-08-01 17:28:00,71.0,63.0,29.89,NE,48,2.0,5.0,75,0.00,,,0.00,,2013-08-01 21:28:00,
2013-08-01 17:35:00,71.0,62.0,29.89,NNW,344,1.0,5.0,74,0.00,,,0.00,,2013-08-01 21:35:00,
2013-08-01 17:43:00,71.0,62.0,29.89,NNW,344,1.0,5.0,74,0.00,,,0.00,,2013-08-01 21:43:00,
2013-08-01 17:53:00,71.0,62.0,29.89,East,90,1.0,4.0,72,0.00,,,0.00,,2013-08-01 21:53:00,
2013-08-01 18:10:00,70.0,62.0,29.89,SSW,203,0.0,4.0,76,0.00,,,0.00,,2013-08-01 22:10:00,
2013-08-01 18:17:00,70.0,62.0,29.89,SSW,203,0.0,4.0,76,0.00,,,0.00,,2013-08-01 22:17:00,
2013-08-01 18:23:00,69.0,61.0,29.89,WSW,240,0.0,5.0,75,0.00,,,0.00,,2013-08-01 22:23:00,
2013-08-01 18:35:00,69.0,61.0,29.89,West,265,1.0,7.0,77,0.00,,,0.00,,2013-08-01 22:35:00,
2013-08-01 18:46:00,69.0,61.0,29.89,West,265,1.0,7.0,77,0.00,,,0.00,,2013-08-01 22:46:00,
2013-08-01 19:00:00,68.0,62.0,29.89,SW,229,1.0,5.0,80,0.00,,,0.00,,2013-08-01 23:00:00,
2013-08-01 19:10:00,67.0,62.0,29.89,NE,54,0.0,3.0,84,0.00,,,0.00,,2013-08-01 23:10:00,
2013-08-01 19:18:00,67.0,62.0,29.89,NE,54,0.0,3.0,84,0.00,,,0.00,,2013-08-01 23:18:00,
2013-08-01 19:25:00,67.0,63.0,29.89,SSE,155,1.0,4.0,86,0.00,,,0.00,,2013-08-01 23:25:00,
2013-08-01 19:33:00,66.0,62.0,29.88,SSW,209,2.0,4.0,88,0.00,,,0.00,,2013-08-01 23:33:00,
2013-08-01 19:49:00,66.0,62.0,29.88,SSW,209,2.0,4.0,88,0.00,,,0.00,,2013-08-01 23:49:00,
2013-08-01 20:02:00,65.0,62.0,29.88,SSW,194,1.0,5.0,89,0.00,,,0.00,,2013-08-02 00:02:00,
2013-08-01 20:09:00,65.0,62.0,29.89,SSW,212,2.0,4.0,89,0.00,,,0.00,,2013-08-02 00:09:00,
2013-08-01 20:19:00,65.0,62.0,29.89,SSW,212,2.0,4.0,89,0.00,,,0.00,,2013-08-02 00:19:00,
2013-08-01 20:30:00,64.0,61.0,29.88,SW,215,0.0,4.0,90,0.00,,,0.00,,2013-08-02 00:30:00,
2013-08-01 20:39:00,64.0,61.0,29.88,WSW,252,0.0,3.0,91,0.00,,,0.00,,2013-08-02 00:39:00,
2013-08-01 20:50:00,64.0,61.0,29.88,WSW,252,0.0,3.0,91,0.00,,,0.00,,2013-08-02 00:50:00,
2013-08-01 21:02:00,63.0,61.0,29.88,SW,220,0.0,3.0,92,0.00,,,0.00,,2013-08-02 01:02:00,
2013-08-01 21:30:00,63.0,61.0,29.88,SW,236,0.0,2.0,92,0.00,,,0.00,,2013-08-02 01:30:00,
2013-08-01 21:40:00,62.0,60.0,29.89,SW,236,0.0,1.0,93,0.00,,,0.00,,2013-08-02 01:40:00,
2013-08-01 21:48:00,62.0,60.0,29.89,SW,236,0.0,1.0,93,0.00,,,0.00,,2013-08-02 01:48:00,
2013-08-01 22:01:00,61.0,59.0,29.88,SW,236,0.0,2.0,94,0.00,,,0.00,,2013-08-02 02:01:00,
2013-08-01 22:09:00,60.0,59.0,29.88,SW,236,0.0,0.0,95,0.00,,,0.00,,2013-08-02 02:09:00,
2013-08-01 22:28:00,60.0,59.0,29.87,SW,236,0.0,0.0,95,0.00,,,0.00,,2013-08-02 02:28:00,
2013-08-01 22:55:00,60.0,59.0,29.87,SW,236,0.0,1.0,96,0.00,,,0.00,,2013-08-02 02:55:00,
2013-08-01 23:11:00,60.0,59.0,29.87,SW,236,0.0,1.0,96,0.00,,,0.00,,2013-08-02 03:11:00,
2013-08-01 23:23:00,59.0,58.0,29.86,SW,236,0.0,2.0,96,0.00,,,0.00,,2013-08-02 03:23:00,
2013-08-01 23:39:00,59.0,58.0,29.86,SW,236,0.0,2.0,96,0.00,,,0.00,,2013-08-02 03:39:00,
2013-08-01 23:50:00,59.0,58.0,29.86,SW,236,0.0,2.0,97,0.00,,,0.00,,2013-08-02 03:50:00,
2013-08-01 23:56:00,59.0,58.0,29.86,SW,236,0.0,2.0,97,0.00,,,0.00,,2013-08-02 03:56:00,